Weather History for KOBE - June, 2013

Change the Weather History Date:

Sunday, June 16, 2013

  Actual Average (KVRB) Record (KVRB)
Temperature  
Mean Temperature 80 °F 80 °F  
Max Temperature 89 °F 88 °F 97 °F (1944)
Min Temperature 71 °F 72 °F 65 °F (1950)
Degree Days  
Heating Degree Days 0 0  
Month to date heating degree days 0  
Since 1 June heating degree days 0  
Since 1 July heating degree days 456  
Cooling Degree Days 15 15  
Month to date cooling degree days 235  
Year to date cooling degree days 1041  
Since 1 June cooling degree days 235  
Growing Degree Days 30 (Base 50)    
Moisture  
Dew Point 73 °F    
Average Humidity 84    
Maximum Humidity 100    
Minimum Humidity 58    
Precipitation  
Precipitation 0.00 in 0.24 in 1.09 in (1986)
Month to date precipitation 3.47  
Year to date precipitation 18.84  
Sea Level Pressure  
Sea Level Pressure 30.07 in    
Wind  
Wind Speed 3 mph (ESE)    
Max Wind Speed 13 mph    
Max Gust Speed 18 mph    
Visibility 9 miles    
Events Rain , Thunderstorm    
T = Trace of Precipitation, MM = Missing Value Source: NWS Daily Summary

Daily Weather History Graph

Daily Weather History Graph

Search for Another Location

Airport or City:

Trip Planner

Search our weather history database for the weather conditions in past years. The results will help you decide how hot, cold, wet, or windy it might be!

Date:

Astronomy

Jun. 16, 2013 Rise Set
Actual Time 6:28 AM EDT 8:19 PM EDT
Civil Twilight 6:02 AM EDT 8:46 PM EDT
Nautical Twilight 5:30 AM EDT 9:18 PM EDT
Astronomical Twilight 4:56 AM EDT 9:52 PM EDT
Moon 1:25 PM EDT (6/16) 12:58 AM EDT (6/16)
Length of Visible Light 14h 44m
Length of Day
13h 51m
Waxing Crescent, 49% of the Moon is Illuminated
Jun 16
Waxing Crescent
Jun 16
First Quarter
Jun 23
Full
Jun 30
Last Quarter
Jul 8
New

Hourly Weather History & Observations

Time (EDT) Temp. Heat Index Dew Point Humidity Pressure Visibility Wind Dir Wind Speed Gust Speed Precip Events Conditions
12:15 AM 75.2 °F - 73.4 °F 94% 30.08 in 10.0 mi East 3.5 mph - N/A   Scattered Clouds
12:35 AM 75.2 °F - 73.4 °F 94% 30.08 in 7.0 mi Calm Calm - N/A   Clear
12:55 AM 73.4 °F - 73.4 °F 100% 30.08 in 7.0 mi Calm Calm - N/A   Clear
1:15 AM 73.4 °F - 73.4 °F 100% 30.08 in 7.0 mi Calm Calm - N/A   Scattered Clouds
1:35 AM 73.4 °F - 73.4 °F 100% 30.08 in 10.0 mi Calm Calm - N/A   Mostly Cloudy
1:55 AM 75.2 °F - 73.4 °F 94% 30.08 in 7.0 mi Calm Calm - N/A   Overcast
2:15 AM 73.4 °F - 73.4 °F 100% 30.08 in 7.0 mi Calm Calm - N/A   Scattered Clouds
2:35 AM 73.4 °F - 73.4 °F 100% 30.07 in 7.0 mi Calm Calm - N/A   Scattered Clouds
2:55 AM 73.4 °F - 73.4 °F 100% 30.07 in 7.0 mi Calm Calm - N/A   Scattered Clouds
3:15 AM 73.4 °F - 73.4 °F 100% 30.06 in 7.0 mi East 3.5 mph - N/A   Scattered Clouds
3:35 AM 73.4 °F - 73.4 °F 100% 30.06 in 7.0 mi ESE 3.5 mph - N/A   Mostly Cloudy
3:55 AM 73.4 °F - 73.4 °F 100% 30.06 in 7.0 mi Calm Calm - N/A   Scattered Clouds
4:15 AM 73.4 °F - 73.4 °F 100% 30.05 in 7.0 mi ESE 3.5 mph - N/A   Clear
4:35 AM 73.4 °F - 73.4 °F 100% 30.05 in 10.0 mi Calm Calm - N/A   Clear
4:55 AM 73.4 °F - 73.4 °F 100% 30.05 in 10.0 mi Calm Calm - N/A   Clear
5:15 AM 73.4 °F - 71.6 °F 94% 30.05 in 7.0 mi Calm Calm - N/A   Clear
5:35 AM 71.6 °F - 71.6 °F 100% 30.06 in 7.0 mi Calm Calm - N/A   Clear
5:55 AM 71.6 °F - 71.6 °F 100% 30.07 in 10.0 mi North 3.5 mph - N/A   Clear
6:15 AM 71.6 °F - 71.6 °F 100% 30.08 in 7.0 mi Calm Calm - N/A   Clear
6:35 AM 71.6 °F - 71.6 °F 100% 30.08 in 5.0 mi Calm Calm - N/A   Clear
6:55 AM 71.6 °F - 71.6 °F 100% 30.08 in 3.0 mi Calm Calm - N/A   Clear
7:15 AM 71.6 °F - 71.6 °F 100% 30.08 in 3.0 mi Calm Calm - N/A   Scattered Clouds
7:35 AM 73.4 °F - 73.4 °F 100% 30.08 in 5.0 mi Calm Calm - N/A   Clear
7:55 AM 73.4 °F - 73.4 °F 100% 30.09 in 7.0 mi Calm Calm - N/A   Clear
8:15 AM 77.0 °F - 73.4 °F 89% 30.09 in 10.0 mi Calm Calm - N/A   Clear
8:35 AM 78.8 °F - 75.2 °F 89% 30.10 in 10.0 mi East 4.6 mph - N/A   Clear
8:55 AM 80.6 °F 86.2 °F 75.2 °F 84% 30.10 in 10.0 mi East 4.6 mph - N/A   Clear
9:15 AM 80.6 °F 86.2 °F 75.2 °F 84% 30.10 in 10.0 mi East 3.5 mph - N/A   Clear
9:35 AM 82.4 °F 89.5 °F 75.2 °F 79% 30.10 in 10.0 mi SE 4.6 mph - N/A   Clear
9:55 AM 82.4 °F 88.2 °F 73.4 °F 74% 30.10 in 10.0 mi SE 5.8 mph - N/A   Mostly Cloudy
10:15 AM 82.4 °F 88.2 °F 73.4 °F 74% 30.10 in 10.0 mi East 5.8 mph - N/A   Mostly Cloudy
10:35 AM 84.2 °F 90.9 °F 73.4 °F 70% 30.09 in 10.0 mi East 5.8 mph - N/A   Mostly Cloudy
10:55 AM 86.0 °F 93.4 °F 73.4 °F 66% 30.09 in 10.0 mi ESE 6.9 mph - N/A   Mostly Cloudy
11:15 AM 86.0 °F 93.4 °F 73.4 °F 66% 30.09 in 10.0 mi SSE 5.8 mph - N/A   Mostly Cloudy
11:35 AM 86.0 °F 93.4 °F 73.4 °F 66% 30.09 in 10.0 mi ENE 5.8 mph - N/A   Scattered Clouds
11:55 AM 86.0 °F 93.4 °F 73.4 °F 66% 30.09 in 10.0 mi ESE 4.6 mph - N/A   Scattered Clouds
12:15 PM 87.8 °F 95.6 °F 73.4 °F 62% 30.09 in 10.0 mi ENE 3.5 mph - N/A   Clear
12:35 PM 87.8 °F 95.6 °F 73.4 °F 62% 30.08 in 10.0 mi ESE 4.6 mph - N/A   Scattered Clouds
12:55 PM 87.8 °F 95.6 °F 73.4 °F 62% 30.08 in 10.0 mi East 5.8 mph - N/A   Mostly Cloudy
1:15 PM 87.8 °F 93.8 °F 71.6 °F 58% 30.08 in 10.0 mi Calm Calm - N/A   Scattered Clouds
1:35 PM 87.8 °F 95.6 °F 73.4 °F 62% 30.08 in 10.0 mi SE 8.1 mph - N/A   Clear
1:55 PM 87.8 °F 93.8 °F 71.6 °F 58% 30.07 in 10.0 mi ESE 4.6 mph - N/A   Clear
2:15 PM 87.8 °F 93.8 °F 71.6 °F 58% 30.07 in 10.0 mi Calm Calm - N/A   Scattered Clouds
2:35 PM 87.8 °F 93.8 °F 71.6 °F 58% 30.07 in 10.0 mi South 5.8 mph - N/A   Scattered Clouds
2:55 PM 87.8 °F 95.6 °F 73.4 °F 62% 30.06 in 10.0 mi South 4.6 mph - N/A   Mostly Cloudy
3:15 PM 87.8 °F 93.8 °F 71.6 °F 58% 30.06 in 10.0 mi Calm Calm - N/A   Overcast
3:35 PM 89.6 °F 98.2 °F 73.4 °F 59% 30.05 in 10.0 mi SSW 8.1 mph - N/A   Overcast
3:55 PM 82.4 °F 88.2 °F 73.4 °F 74% 30.04 in 10.0 mi East 8.1 mph - N/A   Overcast
4:15 PM 78.8 °F - 73.4 °F 83% 30.05 in 10.0 mi ENE 10.4 mph - N/A Rain Light Rain
4:35 PM 77.0 °F - 73.4 °F 89% 30.05 in 10.0 mi NNE 12.7 mph - N/A Thunderstorm Thunderstorm
4:55 PM 78.8 °F - 73.4 °F 83% 30.06 in 10.0 mi ENE 8.1 mph - N/A Thunderstorm Thunderstorm
5:15 PM 78.8 °F - 71.6 °F 78% 30.05 in 10.0 mi ENE 11.5 mph 18.4 mph N/A Thunderstorm Thunderstorm
5:35 PM 78.8 °F - 69.8 °F 74% 30.05 in 10.0 mi ESE 9.2 mph - N/A Thunderstorm Thunderstorm
5:55 PM 78.8 °F - 71.6 °F 78% 30.04 in 10.0 mi ESE 8.1 mph - N/A   Scattered Clouds
6:15 PM 80.6 °F 84.6 °F 71.6 °F 74% 30.04 in 10.0 mi ESE 8.1 mph - N/A   Clear
6:35 PM 80.6 °F 83.9 °F 69.8 °F 70% 30.04 in 10.0 mi ESE 4.6 mph - N/A   Scattered Clouds
6:55 PM 78.8 °F - 71.6 °F 78% 30.04 in 10.0 mi Calm Calm - N/A   Mostly Cloudy
7:15 PM 78.8 °F - 73.4 °F 83% 30.04 in 10.0 mi ESE 4.6 mph - N/A   Scattered Clouds
7:35 PM 78.8 °F - 73.4 °F 83% 30.04 in 10.0 mi East 4.6 mph - N/A   Clear
7:55 PM 78.8 °F - 73.4 °F 83% 30.05 in 10.0 mi Calm Calm - N/A   Clear
8:15 PM 77.0 °F - 73.4 °F 89% 30.06 in 10.0 mi ENE 3.5 mph - N/A   Clear
8:35 PM 77.0 °F - 73.4 °F 89% 30.07 in 10.0 mi ENE 3.5 mph - N/A   Clear
8:55 PM 77.0 °F - 73.4 °F 89% 30.07 in 10.0 mi Calm Calm - N/A   Clear
9:15 PM 77.0 °F - 73.4 °F 89% 30.07 in 10.0 mi ESE 4.6 mph - N/A   Clear
9:35 PM 77.0 °F - 73.4 °F 89% 30.07 in 10.0 mi ESE 4.6 mph - N/A   Clear
9:55 PM 77.0 °F - 73.4 °F 89% 30.08 in 10.0 mi East 3.5 mph - N/A   Clear
10:15 PM 77.0 °F - 73.4 °F 89% 30.08 in 10.0 mi ESE 3.5 mph - N/A   Clear
10:35 PM 77.0 °F - 73.4 °F 89% 30.09 in 10.0 mi ESE 4.6 mph - N/A   Clear
10:55 PM 77.0 °F - 73.4 °F 89% 30.09 in 10.0 mi SE 3.5 mph - N/A   Clear
11:15 PM 77.0 °F - 73.4 °F 89% 30.09 in 10.0 mi ESE 6.9 mph - N/A   Clear
11:35 PM 77.0 °F - 73.4 °F 89% 30.09 in 10.0 mi ESE 5.8 mph - N/A   Clear
11:55 PM 77.0 °F - 73.4 °F 89% 30.09 in 10.0 mi SE 5.8 mph - N/A   Clear